Location: Asbacherhof
(48.8543°N, 10.7903°E)
Time: 16:34:03
(UTC+00:00)

MOS 1 Rocket - Pass Details

Date: 26 May 2022
Orbit: 615 x 827 km, 97.5° (Epoch: 06 July)

Event Time Altitude Azimuth Distance (km) Brightness Sun altitude
Exits shadow 00:44:02 10° 140° (SE) 1,948 5.3 -17.2°
Maximum altitude 00:48:00 42° 70° (ENE) 884 4.2 -17.0°
Drops below altitude 10° 00:52:05 10° 359° (N) 2,008 6.7 -16.7°
Sets 00:54:23 0° 353° (N) 2,937 7.6 -16.5°
